OpenBCM V2.0.3 (Linux)

Packet Radio Mailbox

IZ3LSV

[San Dona' di P. JN]

 Login: GUEST





  
LU9DCE > KEP      05.12.19 15:20l 243 Lines 12042 Bytes #999 (0) @ WW
BID : 4313_LU9DCE
Read: GUEST
Subj: TLE 02 12
Path: IZ3LSV<IQ2LB<IW2OHX<IR2UBX<EA2RCF<LU9DCE
Sent: 191202/1601Z 4313@LU9DCE.TOR.BA.ARG.SOAM LinBPQ6.0.19

            __    _  _  ___  ____   ___  ____    ____  ____  ____
           (  )  / )( \/ _ \(    \ / __)(  __)  (  _ \(  _ \/ ___)
           / (_/\) \/ (\__  )) D (( (__  ) _)    ) _ ( ) _ (\___ \
           \____/\____/(___/(____/ \___)(____)  (____/(____/(____/
               ESTACION DE PACKET RADIO - BUENOS AIRES (GF05OM)
                   BOLETINES INFORMATIVOS PROGRAMADOS (BIP)
                  SLACKWARE LINUX - HELLOCODELINUX@GMAIL.COM
+----------------------------------------------------------------------------+
OSCAR 7
1  7530U 74089B   19335.92326698 -.00000033 +00000-0 +76666-4 0  9991
2  7530 101.7703 302.0212 0012445 027.3482 351.3936 12.53641004061113
OSCAR 11 (UoSAT 2)
1 14781U 84021B   19336.14271014  .00000049  00000-0  12077-4 0  9992
2 14781  97.6003 352.8904 0009667 127.2115 232.9983 14.83124489923437
OSCAR 19 (LUSAT)
1 20442U 90005G   19336.13632555  .00000014  00000-0  21562-4 0  9993
2 20442  98.6677 277.9869 0012245  23.9690 336.2062 14.32939332560213
EYESAT A
1 22825U 93061C   19335.87999984 -.00000020 +00000-0 +10209-4 0  9991
2 22825 098.9161 328.4168 0007569 230.9572 129.0937 14.30072358365437
ITAMSAT
1 22826U 93061D   19336.40251547 -.00000006  00000-0  15707-4 0  9990
2 22826  98.9103 328.9226 0008263 217.0894 142.9718 14.30406910365985
RADIO ROSTO
1 23439U 94085A   19335.89930402 -.00000034  00000-0  23759-3 0  9990
2 23439  64.8146 207.3443 0145698  80.6634 281.0731 11.27568921 26793
JAS 2
1 24278U 96046B   19335.85061413  .00000006  00000-0  41107-4 0  9990
2 24278  98.5622 106.9272 0350561 169.1602 191.7350 13.53094850150278
TECHSAT 1B
1 25397U 98043D   19335.83342929 -.00000004 +00000-0 +17740-4 0  9999
2 25397 098.7065 274.0782 0000257 317.3633 042.7526 14.23675211111295
ISS (ZARYA)
1 25544U 98067A   19336.28665689  .00000325  00000-0  13691-4 0  9996
2 25544  51.6444 247.8970 0006791 353.0124 150.9615 15.50081997201335
PCSAT
1 26931U 01043C   19335.89582875 -.00000017 +00000-0 +25073-4 0  9992
2 26931 067.0512 294.7868 0007311 264.8920 095.1347 14.30560407948674
SAUDISAT 1C
1 27607U 02058C   19335.93177356 -.00000037 +00000-0 +15632-4 0  9991
2 27607 064.5554 261.3319 0070969 223.8866 135.6587 14.75592505911430
CUTE-1
1 27844U 03031E   19335.96898139  .00000033  00000-0  34380-4 0  9994
2 27844  98.6840 341.6969 0008817 270.0953  89.9215 14.22208423851927
CUBESAT XI 4
1 27848U 03031J   19335.58639699 +.00000024 +00000-0 +30698-4 0  9998
2 27848 098.6913 341.8523 0008709 284.5953 075.4258 14.21799586851684
MOZHAYETS 4
1 27939U 03042A   19336.42786685  .00000106  00000-0  27590-4 0  9991
2 27939  98.0639 109.2373 0011782 258.2064 101.7827 14.66821398864987
CUBESAT XI 5
1 28895U 05043F   19335.90008217 +.00000116 +00000-0 +31089-4 0  9995
2 28895 097.9823 113.1799 0016787 182.9402 177.1705 14.63716318751560
CUTE-1.7+APD II
1 32785U 08021C   19336.41699538  .00000194  00000-0  26539-4 0  9996
2 32785  97.5587 328.3501 0014502  72.2610 288.0189 14.88382624628480
DELFI C3
1 32789U 08021G   19336.40029217  .00001264  00000-0  87694-4 0  9998
2 32789  97.4451  20.8818 0010587 274.4725  85.5294 15.07297370632072
SEEDS
1 32791U 08021J   19335.54950036 +.00000401 +00000-0 +45902-4 0  9995
2 32791 097.5324 333.6292 0014464 049.7468 310.5013 14.90922477628744
YUBELEINY
1 32953U 08025A   19336.48763928  .00000021  00000-0  75656-4 0  9992
2 32953  82.5070  41.0308 0020256 125.1691 235.1288 12.43092497523035
PRISM (HITOMI)
1 33493U 09002B   19335.86007157 +.00000328 +00000-0 +34170-4 0  9990
2 33493 098.1278 263.1509 0015190 357.2394 002.8740 14.96822333589996
KKS-1 (KISEKI)
1 33499U 09002H   19336.16318516  .00000067  00000-0  17922-4 0  9990
2 33499  98.3348 180.0827 0009967  42.4927 317.7051 14.75484410583772
SWISSCUBE
1 35932U 09051B   19336.14258062  .00000110  00000-0  35876-4 0  9992
2 35932  98.5995 147.1529 0007931  22.9651 337.1899 14.56335293541004
BEESAT
1 35933U 09051C   19335.86089891 +.00000099 +00000-0 +33439-4 0  9992
2 35933 098.6008 148.6853 0006403 038.1389 322.0260 14.56418057540999
ITUPSAT 1
1 35935U 09051E   19335.73976359 +.00000074 +00000-0 +28103-4 0  9999
2 35935 098.6118 148.7844 0008673 034.2054 325.9700 14.55571284540768
XIWANG-1 (HOPE-1)
1 36122U 09072B   19336.41383726 -.00000028  00000-0  37374-4 0  9997
2 36122 100.0800 331.0003 0007044 323.9605  36.1041 13.16352470478813
TISAT 1
1 36799U 10035E   19336.16519605  .00000189  00000-0  25167-4 0  9991
2 36799  98.1743 134.0738 0011011 258.8002 101.1978 14.91216240509576
JUGNU
1 37839U 11058B   19335.60386528 +.00000303 +00000-0 +19826-4 0  9990
2 37839 019.9623 048.6520 0019030 356.7043 150.3091 14.12665847420636
SRMSAT
1 37841U 11058D   19335.72647609 +.00000274 +00000-0 +50761-5 0  9997
2 37841 019.9712 108.1186 0011742 220.6415 167.5546 14.10644369420079
M-CUBED/EXP-1 PRIME
1 37855U 11061F   19336.20317592  .00001246  00000-0  69708-4 0  9995
2 37855 101.7245 317.3618 0172331 303.1461  55.3318 15.05845426441839
HORYU 2
1 38340U 12025D   19336.37072775  .00000133  00000-0  27381-4 0  9990
2 38340  98.3098  19.7932 0010519 317.4105  42.6287 14.75781979405742
STRAND 1
1 39090U 13009E   19335.86356065 +.00000029 +00000-0 +25314-4 0  9994
2 39090 098.4702 178.9093 0009626 149.2338 210.9414 14.35107725354203
SOMP
1 39134U 13015E   19335.91548751 +.00000809 +00000-0 +45664-4 0  9997
2 39134 064.8621 201.7640 0037703 276.6569 083.0268 15.20543311365488
BEESAT 3
1 39135U 13015F   19335.87235304 +.00000635 +00000-0 +40722-4 0  9997
2 39135 064.8664 222.5647 0041540 279.8641 079.7796 15.17768043365074
BEESAT 2
1 39136U 13015G   19336.43431869  .00000815  00000-0  50456-4 0  9990
2 39136  64.8693 225.0667 0030525 285.1870  74.5881 15.17186924365465
CUBEBUG 1
1 39153U 13018D   19336.21647532  .00000187  00000-0  31303-4 0  9996
2 39153  97.9819  73.4423 0017308  23.4532 336.7465 14.80632849356459
ZACUBE
1 39417U 13066B   19335.75953849 +.00000160 +00000-0 +26518-4 0  9994
2 39417 097.5614 339.9211 0058198 208.2238 151.5818 14.81185959325620
TRITON 1
1 39427U 13066M   19335.91914834 +.00000179 +00000-0 +36534-4 0  9993
2 39427 097.6986 303.2203 0113683 354.0511 005.9337 14.67913928322538
GOMX 1
1 39430U 13066Q   19336.38047962  .00000214  00000-0  47240-4 0  9994
2 39430  97.7681 282.1308 0152386  88.6543 273.2102 14.59316743320917
HUMSAT D
1 39433U 13066T   19336.37895680  .00000271  00000-0  31527-4 0  9998
2 39433  97.5337  16.8962 0032243 104.0270 256.4537 14.92315856327938
CUBEBUG 2
1 39440U 13066AA  19335.92235093 +.00000173 +00000-0 +31181-4 0  9999
2 39440 097.6134 324.6410 0078730 264.9487 094.2733 14.75924792323294
FUNCUBE 1
1 39444U 13066AE  19335.80277070 +.00000225 +00000-0 +33913-4 0  9994
2 39444 097.5579 342.0584 0057485 201.1330 158.7509 14.82019555323949
UWE-3
1 39446U 13066AG  19335.91255597 +.00000151 +00000-0 +26866-4 0  9995
2 39446 097.5868 331.7984 0068732 237.0198 122.4395 14.78458721323238
SPROUT
1 39770U 14029E   19336.26365226  .00000580  00000-0  70064-4 0  9990
2 39770  97.8906  78.5547 0007899 258.7695 101.2655 14.87524305299591
UNISAT 6
1 40012U 14033C   19336.39777428  .00000126  00000-0  26305-4 0  9996
2 40012  97.7324 195.6153 0056970 280.2686  79.2102 14.74039465293244
DUCHIFAT 1
1 40021U 14033M   19335.81192411 +.00000483 +00000-0 +55025-4 0  9992
2 40021 097.9307 260.9904 0011851 218.2863 141.7515 14.90751176296293
QB50P1
1 40025U 14033R   19335.82178451  .00000198  00000-0  26990-4 0  9997
2 40025  97.9085 255.2346 0011272 229.1664 130.8576 14.89030200296049
CHUBUSAT 1
1 40300U 14070C   19336.29724910  .00000614  00000-0  29533-4 0  9992
2 40300  97.3132  46.1397 0019478 185.8616 214.5403 15.22272417281360
NUDT-PHONESAT
1 40900U 15049B   19336.33048353  .00001878  00000-0  81960-4 0  9995
2 40900  97.4358 344.0717 0011853 326.8438 147.8957 15.23346012233027
ZDPS 2A
1 40901U 15049C   19336.41099729  .00000898  00000-0  47486-4 0  9994
2 40901  97.4609 339.8601 0013202 350.3884 145.0478 15.17959786232521
ZDPS 2B
1 40902U 15049D   19336.31944841  .00001074  00000-0  56288-4 0  9995
2 40902  97.4566 337.1349 0013223 347.4826 140.0182 15.17856958232489
XW-2A
1 40903U 15049E   19336.40108221  .00001603  00000-0  39085-4 0  9994
2 40903  97.3167  19.9574 0011660 260.6482 110.1041 15.42380349235948
KAITUO 1A
1 40904U 15049F   19336.40076821  .00000658  00000-0  38178-4 0  9996
2 40904  97.4714 335.6133 0014623 356.9295 139.5723 15.15524328232249
OBJECT G
1 40905U 15049G   19336.33221759  .00000586  00000-0  35446-4 0  9996
2 40905  97.4773 332.9273 0015507 352.4209 120.4372 15.14406691232091
XW-2C
1 40906U 15049H   19336.43311256  .00000403  00000-0  24533-4 0  9993
2 40906  97.4717 335.8087 0014415 347.4657 150.4195 15.15843826232253
XW-2D
1 40907U 15049J   19336.32098333  .00000703  00000-0  39976-4 0  9990
2 40907  97.4700 335.3825 0013813 345.2814 139.4530 15.16050065232259
LILACSAT 2
1 40908U 15049K   19336.36430494  .00000049  00000-0  63394-5 0  9998
2 40908  97.4841 334.0512 0015809 352.5124 115.2795 15.13902318232021
XW-2F
1 40910U 15049M   19336.32026453  .00000934  00000-0  49766-4 0  9992
2 40910  97.4648 337.6430 0014235 336.4412 152.1862 15.17570065232287
XW-2B
1 40911U 15049N   19336.29563813  .00000490  00000-0  28986-4 0  9993
2 40911  97.4717 336.0352 0013670 346.2340 139.7254 15.15976754232146
KAITUO 1B
1 40912U 15049P   19336.29264141  .00001056  00000-0  52301-4 0  9993
2 40912  97.4498 341.5187 0013676 316.0643 165.0558 15.19916674232617
TIANWANG 1C (TW-1C)
1 40926U 15051B   19336.38370743  .00011926  00000-0  15231-3 0  9994
2 40926  97.1145  22.5084 0008933 108.1988 262.8175 15.59361061236109
